Weather History for KGBD - November, 2012

Change the Weather History Date:

Sunday, November 18, 2012

  Actual Average Record
Temperature  
Mean Temperature 52 °F -  
Max Temperature 62 °F 56 °F 75 °F (1976)
Min Temperature 42 °F 34 °F 5 °F (2014)
Degree Days  
Heating Degree Days 13    
Growing Degree Days 2 (Base 50)    
Moisture  
Dew Point 34 °F    
Average Humidity 52    
Maximum Humidity 76    
Minimum Humidity 42    
Precipitation  
Precipitation 0.00 in - - ()
Sea Level Pressure  
Sea Level Pressure 30.04 in    
Wind  
Wind Speed 16 mph (South)    
Max Wind Speed 28 mph    
Max Gust Speed 34 mph    
Visibility 10 miles    
Events      
Averages and records for this station are not official NWS values.
T = Trace of Precipitation, MM = Missing Value Source: NWS Daily Summary

Daily Weather History Graph

Daily Weather History Graph

Search for Another Location

Airport or City:

Trip Planner

Search our weather history database for the weather conditions in past years. The results will help you decide how hot, cold, wet, or windy it might be!

Date:

Astronomy

Nov. 18, 2012 Rise Set
Actual Time 7:20 AM CST 5:20 PM CST
Civil Twilight 6:52 AM CST 5:48 PM CST
Nautical Twilight 6:20 AM CST 6:21 PM CST
Astronomical Twilight 5:48 AM CST 6:52 PM CST
Moon 11:49 AM CST (11/18) 10:40 PM CST (11/18)
Length of Visible Light 10h 56m
Length of Day
9h 59m
Waxing Crescent, 30% of the Moon is Illuminated
Nov 18
Waxing Crescent
Nov 20
First Quarter
Nov 28
Full
Dec 6
Last Quarter
Dec 13
New

Hourly Weather History & Observations

Time (CST) Temp. Windchill Dew Point Humidity Pressure Visibility Wind Dir Wind Speed Gust Speed Precip Events Conditions
12:15 AM 46.4 °F 40.4 °F 30.2 °F 53% 30.14 in 10.0 mi South 13.8 mph - N/A   Clear
12:35 AM 46.4 °F 41.5 °F 30.2 °F 53% 30.14 in 10.0 mi South 10.4 mph - N/A   Clear
12:55 AM 44.6 °F 38.8 °F 30.2 °F 57% 30.13 in 10.0 mi SSE 11.5 mph - N/A   Clear
1:15 AM 44.6 °F 38.4 °F 28.4 °F 53% 30.12 in 10.0 mi South 12.7 mph - N/A   Clear
1:35 AM 44.6 °F 38.1 °F 28.4 °F 53% 30.12 in 10.0 mi South 13.8 mph - N/A   Clear
1:55 AM 44.6 °F 38.4 °F 28.4 °F 53% 30.11 in 10.0 mi South 12.7 mph - N/A   Clear
2:15 AM 44.6 °F 38.1 °F 28.4 °F 53% 30.11 in 10.0 mi South 13.8 mph - N/A   Clear
2:35 AM 44.6 °F 37.8 °F 28.4 °F 53% 30.11 in 10.0 mi South 15.0 mph - N/A   Clear
2:55 AM 44.6 °F 37.8 °F 26.6 °F 49% 30.10 in 10.0 mi SSE 15.0 mph - N/A   Clear
3:15 AM 44.6 °F 37.4 °F 26.6 °F 49% 30.10 in 10.0 mi South 16.1 mph - N/A   Clear
3:35 AM 44.6 °F 37.2 °F 26.6 °F 49% 30.10 in 10.0 mi South 17.3 mph - N/A   Clear
3:55 AM 44.6 °F 36.9 °F 26.6 °F 49% 30.09 in 10.0 mi South 18.4 mph - N/A   Clear
4:15 AM 44.6 °F 37.2 °F 28.4 °F 53% 30.08 in 10.0 mi South 17.3 mph - N/A   Clear
4:35 AM 44.6 °F 37.4 °F 26.6 °F 49% 30.08 in 10.0 mi South 16.1 mph - N/A   Clear
4:55 AM 44.6 °F 37.4 °F 28.4 °F 53% 30.08 in 10.0 mi South 16.1 mph - N/A   Clear
5:15 AM 42.8 °F 34.8 °F 28.4 °F 57% 30.08 in 10.0 mi SSE 17.3 mph - N/A   Clear
5:35 AM 44.6 °F 36.9 °F 28.4 °F 53% 30.08 in 10.0 mi SSE 18.4 mph - N/A   Clear
5:55 AM 44.6 °F 36.6 °F 28.4 °F 53% 30.07 in 10.0 mi SSE 19.6 mph 24.2 mph N/A   Clear
6:15 AM 44.6 °F 37.2 °F 26.6 °F 49% 30.07 in 10.0 mi SSE 17.3 mph 21.9 mph N/A   Clear
6:35 AM 42.8 °F 35.1 °F 28.4 °F 57% 30.06 in 10.0 mi SSE 16.1 mph - N/A   Clear
6:55 AM 44.6 °F 38.8 °F 28.4 °F 53% 30.07 in 10.0 mi SSE 11.5 mph - N/A   Clear
7:15 AM 44.6 °F 38.4 °F 28.4 °F 53% 30.08 in 10.0 mi South 12.7 mph - N/A   Clear
7:35 AM 44.6 °F 38.4 °F 28.4 °F 53% 30.09 in 10.0 mi South 12.7 mph - N/A   Clear
7:55 AM 44.6 °F 37.8 °F 28.4 °F 53% 30.07 in 10.0 mi South 15.0 mph - N/A   Clear
8:15 AM 44.6 °F 37.4 °F 28.4 °F 53% 30.07 in 10.0 mi South 16.1 mph 23.0 mph N/A   Clear
8:35 AM 46.4 °F 39.0 °F 28.4 °F 50% 30.06 in 10.0 mi SSE 19.6 mph 25.3 mph N/A   Clear
8:55 AM 46.4 °F 38.7 °F 30.2 °F 53% 30.06 in 10.0 mi South 20.7 mph 27.6 mph N/A   Clear
9:15 AM 48.2 °F - 30.2 °F 50% 30.06 in 10.0 mi South 21.9 mph - N/A   Clear
9:35 AM 51.8 °F - 30.2 °F 44% 30.04 in 10.0 mi South 27.6 mph 31.1 mph N/A   Clear
9:55 AM 53.6 °F - 33.8 °F 47% 30.05 in 10.0 mi South 25.3 mph 31.1 mph N/A   Clear
10:15 AM 53.6 °F - 33.8 °F 47% 30.06 in 10.0 mi South 26.5 mph 32.2 mph N/A   Clear
10:35 AM 55.4 °F - 35.6 °F 47% 30.05 in 10.0 mi South 27.6 mph 34.5 mph N/A   Clear
10:55 AM 57.2 °F - 35.6 °F 44% 30.04 in 10.0 mi South 25.3 mph 32.2 mph N/A   Clear
11:15 AM 57.2 °F - 35.6 °F 44% 30.04 in 10.0 mi South 27.6 mph 31.1 mph N/A   Clear
11:35 AM 57.2 °F - 37.4 °F 48% 30.03 in 10.0 mi South 23.0 mph 31.1 mph N/A   Clear
11:55 AM 57.2 °F - 37.4 °F 48% 30.02 in 10.0 mi South 21.9 mph 29.9 mph N/A   Clear
12:15 PM 59.0 °F - 37.4 °F 45% 30.01 in 10.0 mi South 24.2 mph 29.9 mph N/A   Clear
12:35 PM 59.0 °F - 37.4 °F 45% 30.00 in 10.0 mi South 25.3 mph 34.5 mph N/A   Clear
12:55 PM 60.8 °F - 37.4 °F 42% 30.00 in 10.0 mi South 23.0 mph 34.5 mph N/A   Clear
1:15 PM 60.8 °F - 37.4 °F 42% 29.99 in 10.0 mi South 25.3 mph 32.2 mph N/A   Partly Cloudy
1:35 PM 60.8 °F - 37.4 °F 42% 29.97 in 10.0 mi South 26.5 mph 32.2 mph N/A   Partly Cloudy
1:55 PM 59.0 °F - 37.4 °F 45% 29.96 in 10.0 mi South 25.3 mph - N/A   Clear
2:15 PM 59.0 °F - 37.4 °F 45% 29.96 in 10.0 mi South 23.0 mph 28.8 mph N/A   Clear
2:35 PM 60.8 °F - 37.4 °F 42% 29.96 in 10.0 mi South 23.0 mph 28.8 mph N/A   Clear
2:55 PM 60.8 °F - 39.2 °F 45% 29.96 in 10.0 mi South 16.1 mph - N/A   Clear
3:15 PM 62.6 °F - 39.2 °F 42% 29.96 in 10.0 mi South 20.7 mph 27.6 mph N/A   Clear
3:35 PM 62.6 °F - 39.2 °F 42% 29.96 in 10.0 mi South 19.6 mph 28.8 mph N/A   Clear
3:55 PM 62.6 °F - 39.2 °F 42% 29.97 in 10.0 mi South 25.3 mph 29.9 mph N/A   Clear
4:15 PM 60.8 °F - 39.2 °F 45% 29.97 in 10.0 mi South 21.9 mph - N/A   Clear
4:35 PM 60.8 °F - 39.2 °F 45% 29.98 in 10.0 mi South 17.3 mph - N/A   Clear
4:55 PM 60.8 °F - 39.2 °F 45% 29.98 in 10.0 mi South 18.4 mph - N/A   Clear
5:15 PM 59.0 °F - 39.2 °F 48% 29.98 in 10.0 mi South 13.8 mph - N/A   Clear
5:35 PM 57.2 °F - 39.2 °F 51% 29.98 in 10.0 mi SSE 12.7 mph - N/A   Clear
5:55 PM 57.2 °F - 39.2 °F 51% 29.98 in 10.0 mi SSE 13.8 mph - N/A   Clear
6:15 PM 57.2 °F - 39.2 °F 51% 29.97 in 10.0 mi SSE 13.8 mph - N/A   Clear
6:35 PM 57.2 °F - 39.2 °F 51% 29.98 in 10.0 mi SSE 15.0 mph - N/A   Clear
6:55 PM 57.2 °F - 39.2 °F 51% 29.99 in 10.0 mi South 12.7 mph - N/A   Clear
7:15 PM 57.2 °F - 39.2 °F 51% 29.99 in 10.0 mi South 12.7 mph - N/A   Clear
7:35 PM 57.2 °F - 39.2 °F 51% 30.00 in 10.0 mi South 13.8 mph - N/A   Clear
7:55 PM 55.4 °F - 39.2 °F 54% 30.00 in 10.0 mi SSE 10.4 mph - N/A   Clear
8:15 PM 53.6 °F - 39.2 °F 58% 30.00 in 10.0 mi SSE 10.4 mph - N/A   Clear
8:35 PM 51.8 °F - 39.2 °F 62% 30.00 in 10.0 mi SSE 8.1 mph - N/A   Clear
8:55 PM 51.8 °F - 37.4 °F 58% 30.01 in 10.0 mi SSE 6.9 mph - N/A   Clear
9:15 PM 51.8 °F - 39.2 °F 62% 30.01 in 10.0 mi South 10.4 mph - N/A   Clear
9:35 PM 48.2 °F - 37.4 °F 66% 30.02 in 10.0 mi South 11.5 mph - N/A   Clear
9:55 PM 48.2 °F - 39.2 °F 71% 30.02 in 10.0 mi South 10.4 mph - N/A   Clear
10:15 PM 46.4 °F 41.5 °F 39.2 °F 76% 30.02 in 10.0 mi South 10.4 mph - N/A   Clear
10:35 PM 46.4 °F 41.9 °F 39.2 °F 76% 30.02 in 10.0 mi South 9.2 mph - N/A   Clear
11:15 PM 44.6 °F 39.2 °F 37.4 °F 76% 30.03 in 10.0 mi South 10.4 mph - N/A   Clear
11:55 PM 46.4 °F 42.4 °F 39.2 °F 76% 30.03 in 10.0 mi SSW 8.1 mph - N/A   Clear